Probability
0 0 0 0 0 0 0 0 0 0 0 0 0 0 10 3 3 6 10 16 23 19 6 6 10 16 16 16 10 13 19 16 10 10 10 16 10 10 13 3 3 3 3 3
0 0 0 0 0 0 0 0 0 0 0 0 3 3 6 3 0 6 13 16 19 16 13 16 19 19 10 19 10 10 16 13 13 13 10 10 6 10 10 10 3 3 3 3
0 0 0 0 0 0 0 0 0 0 0 3 0 6 10 3 3 6 3 6 6 16 13 6 19 13 16 13 10 13 19 10 6 10 10 3 3 3 3 3 6 3 3 3
0 0 0 0 0 0 0 0 0 0 0 0 0 0 0 3 3 6 3 6 3 10 10 10 16 13 16 16 13 13 16 10 6 10 10 6 3 3 3 3 6 3 3 3
0 0 0 0 0 0 0 0 0 0 0 0 0 0 0 0 0 3 3 3 3 6 6 10 13 16 19 13 13 19 16 10 6 6 6 6 6 3 3 0 0 0 0 0
0 0 0 0 0 0 0 0 0 0 0 0 0 0 0 0 0 0 0 3 3 6 6 3 10 13 10 10 13 13 16 13 13 6 6 6 6 3 3 0 0 0 0 0
0 0 0 0 0 0 0 0 0 0 0 0 0 0 0 0 0 0 0 0 3 3 6 3 3 3 10 13 13 13 13 10 10 10 10 6 6 3 3 0 0 0 0 0
0 0 0 0 0 0 0 0 0 0 0 0 0 0 0 0 0 0 0 3 3 3 3 0 0 0 3 13 13 13 10 13 10 10 10 10 3 3 3 0 0 0 0 0
0 0 0 0 0 0 0 0 0 0 0 0 0 0 0 0 0 0 0 0 3 3 3 0 0 0 0 3 10 10 10 10 6 6 10 10 0 0 3 0 0 0 0 0
0 0 0 0 0 0 0 0 0 0 0 0 0 0 0 0 0 0 0 0 0 3 3 3 0 0 0 0 6 10 13 10 6 6 6 6 6 3 6 0 0 0 0 0
0 0 0 0 0 0 0 0 0 0 0 0 0 0 0 0 0 0 0 0 0 3 3 3 3 0 0 0 3 13 13 6 6 6 6 6 6 6 0 0 0 0 0 0
0 0 0 0 0 0 0 0 0 0 0 0 0 0 0 0 0 0 0 0 0 3 3 6 3 0 3 3 3 6 13 6 6 10 6 6 6 6 3 0 0 0 0 0
0 0 0 0 0 0 0 0 0 0 0 0 0 0 0 0 0 0 0 0 0 0 3 0 0 3 3 3 3 3 6 10 6 6 10 3 3 3 3 3 0 0 0 0
0 0 0 0 0 0 0 0 0 0 0 0 0 0 0 0 0 0 0 0 0 0 0 0 3 3 3 3 6 6 6 6 6 10 10 6 6 6 3 3 3 0 0 0
0 0 0 0 0 0 0 0 0 0 0 0 0 0 0 0 0 0 0 0 0 0 0 6 3 3 3 6 6 13 13 6 6 10 10 6 6 6 6 6 0 0 0 0
0 0 0 0 0 0 0 0 0 0 0 0 0 0 0 0 0 0 0 0 0 0 0 3 3 3 6 6 6 13 16 16 13 10 6 6 6 6 6 6 6 0 0 0
0 0 0 0 0 0 0 0 0 0 0 0 0 0 0 0 0 0 0 0 0 0 0 3 3 3 3 3 3 10 10 13 13 10 13 6 6 6 6 6 6 3 0 0
0 0 0 0 0 0 0 0 3 0 0 0 0 0 0 0 0 0 0 0 0 0 0 0 0 0 0 3 3 3 6 6 10 13 13 10 6 6 6 6 6 3 0 0
0 0 0 0 0 0 0 0 0 3 0 0 0 0 0 3 6 6 3 3 0 0 0 0 0 0 0 0 3 3 3 0 0 3 3 3 3 6 6 3 3 3 0 0
0 0 0 0 0 0 0 0 0 0 0 0 0 0 0 0 0 6 3 0 0 0 0 0 0 0 0 0 0 0 0 0 0 3 3 3 3 0 0 0 0 0 0 0
0 0 0 0 0 0 0 0 0 0 0 0 0 0 0 0 0 3 0 0 0 0 0 0 0 0 0 0 0 0 0 0 0 3 3 3 0 0 0 0 0 0 0 0
0 0 0 0 0 0 0 0 0 0 0 0 0 0 0 0 3 0 0 0 0 0 0 0 0 0 0 0 0 0 0 0 0 0 0 0 0 0 0 0 0 0 0 0
0 0 0 0 0 0 0 0 0 0 0 0 0 0 0 0 0 0 0 0 0 0 0 0 0 0 0 0 0 0 0 0 0 0 0 0 0 0 0 0 0 0 0 0
0 0 0 0 0 0 0 0 0 0 0 0 0 0 0 0 0 0 0 0 0 0 0 0 0 0 0 0 0 0 0 0 0 0 0 0 0 0 0 0 0 0 0 0
0 0 0 0 0 0 0 0 0 0 0 0 0 0 0 0 0 0 0 0 0 0 0 0 0 0 0 0 0 0 0 0 0 0 0 0 0 0 0 0 0 0 0 0
0 0 0 0 0 0 0 0 0 0 0 0 0 0 0 0 0 0 0 0 0 0 0 0 0 0 0 0 0 0 0 0 0 0 0 0 0 0 0 0 0 0 0 0
Height
5849 5851 5851 5852 5852 5853 5854 5855 5856 5856 5856 5856 5855 5855 5853 5851 5850 5848 5845 5843 5841 5838 5835 5832 5830 5828 5827 5826 5827 5829 5832 5836 5839 5843 5848 5852 5855 5859 5862 5865 5867 5869 5871 5873
5845 5846 5847 5847 5848 5849 5850 5852 5853 5853 5853 5853 5852 5852 5850 5849 5847 5845 5843 5841 5838 5836 5833 5830 5827 5826 5824 5823 5824 5826 5828 5832 5836 5840 5844 5848 5852 5856 5859 5862 5865 5867 5870 5872
5840 5842 5842 5843 5845 5846 5848 5849 5850 5850 5851 5850 5850 5850 5848 5846 5844 5842 5840 5838 5836 5834 5832 5829 5826 5824 5822 5821 5821 5823 5825 5828 5833 5837 5841 5845 5849 5853 5856 5860 5863 5865 5868 5870
5835 5837 5838 5840 5842 5843 5845 5846 5846 5847 5847 5847 5847 5846 5846 5843 5841 5840 5838 5836 5834 5832 5830 5827 5824 5822 5821 5820 5820 5821 5823 5826 5830 5835 5839 5843 5846 5851 5854 5858 5861 5864 5866 5869
5831 5833 5834 5836 5839 5840 5842 5843 5843 5844 5844 5844 5844 5843 5844 5841 5838 5837 5835 5834 5832 5831 5828 5826 5823 5822 5820 5819 5819 5820 5822 5825 5829 5833 5837 5840 5844 5848 5851 5855 5858 5861 5864 5867
5827 5828 5830 5833 5835 5837 5838 5840 5840 5841 5841 5842 5841 5840 5840 5838 5836 5834 5833 5832 5830 5829 5827 5825 5822 5821 5819 5818 5818 5819 5820 5824 5827 5831 5834 5838 5841 5845 5849 5852 5856 5859 5862 5865
5823 5825 5827 5829 5831 5833 5835 5837 5837 5838 5838 5839 5838 5837 5838 5835 5834 5832 5831 5830 5829 5827 5826 5824 5822 5820 5818 5817 5818 5819 5820 5823 5826 5829 5833 5837 5840 5844 5847 5850 5854 5857 5860 5863
5819 5822 5823 5825 5828 5830 5831 5833 5835 5835 5835 5835 5835 5834 5835 5833 5831 5830 5829 5828 5827 5826 5825 5824 5822 5820 5818 5818 5818 5819 5820 5823 5826 5829 5832 5835 5838 5842 5845 5848 5852 5855 5858 5861
5815 5817 5819 5821 5823 5825 5827 5829 5831 5831 5831 5831 5832 5833 5833 5831 5829 5828 5827 5826 5826 5825 5824 5823 5822 5820 5819 5818 5818 5819 5821 5823 5825 5828 5830 5834 5837 5840 5844 5847 5851 5854 5857 5859
5811 5813 5815 5817 5819 5821 5823 5825 5826 5827 5827 5827 5829 5829 5830 5829 5827 5827 5825 5824 5824 5823 5823 5823 5821 5820 5820 5819 5819 5819 5820 5823 5825 5827 5830 5832 5836 5839 5843 5846 5849 5852 5854 5857
5806 5809 5811 5812 5814 5816 5819 5820 5821 5822 5823 5824 5825 5829 5827 5826 5825 5824 5824 5823 5822 5822 5822 5822 5821 5821 5820 5820 5819 5819 5820 5822 5824 5827 5829 5831 5834 5837 5841 5844 5847 5849 5851 5854
5801 5804 5806 5808 5810 5811 5813 5815 5817 5818 5819 5820 5821 5826 5824 5823 5822 5822 5822 5821 5820 5820 5820 5821 5821 5820 5820 5820 5820 5820 5820 5822 5824 5826 5828 5830 5832 5835 5838 5841 5843 5846 5848 5850
5796 5799 5801 5803 5807 5807 5808 5810 5811 5813 5814 5815 5817 5822 5820 5820 5820 5820 5819 5819 5819 5819 5819 5819 5819 5819 5819 5819 5819 5820 5820 5821 5823 5825 5827 5829 5831 5833 5835 5838 5840 5842 5844 5846
5790 5792 5795 5798 5799 5801 5802 5804 5806 5807 5809 5810 5813 5815 5817 5817 5817 5817 5817 5817 5817 5817 5817 5817 5817 5817 5818 5818 5818 5819 5819 5820 5821 5822 5824 5827 5829 5831 5833 5835 5836 5838 5840 5841
5783 5785 5787 5789 5791 5793 5795 5798 5799 5801 5803 5805 5808 5810 5812 5812 5813 5814 5814 5814 5814 5814 5814 5814 5815 5815 5816 5816 5816 5817 5818 5819 5820 5820 5822 5824 5826 5828 5830 5831 5832 5834 5835 5836
5775 5777 5779 5781 5783 5785 5787 5790 5792 5794 5796 5799 5801 5804 5806 5807 5808 5809 5810 5810 5811 5811 5811 5812 5812 5812 5813 5814 5814 5815 5816 5816 5818 5819 5820 5821 5823 5824 5825 5827 5828 5829 5830 5830
5766 5768 5770 5772 5775 5775 5777 5782 5784 5786 5789 5792 5795 5799 5799 5801 5802 5804 5805 5806 5807 5807 5808 5809 5809 5810 5810 5811 5811 5812 5813 5814 5814 5815 5816 5818 5819 5819 5820 5821 5822 5823 5824 5824
5758 5759 5760 5763 5766 5766 5772 5774 5776 5778 5782 5785 5788 5791 5793 5795 5797 5798 5800 5801 5802 5803 5804 5805 5805 5806 5807 5807 5807 5808 5809 5810 5811 5811 5812 5813 5814 5815 5815 5816 5816 5816 5817 5817
5749 5750 5752 5754 5756 5758 5762 5765 5768 5771 5774 5778 5781 5784 5786 5788 5791 5793 5794 5796 5797 5799 5799 5800 5801 5802 5802 5803 5804 5804 5805 5806 5806 5807 5807 5808 5808 5809 5809 5810 5809 5809 5810 5809
5741 5742 5745 5746 5748 5750 5755 5757 5760 5764 5767 5771 5774 5777 5780 5782 5785 5787 5788 5790 5792 5793 5794 5795 5796 5797 5798 5798 5799 5800 5800 5800 5801 5801 5802 5802 5802 5803 5803 5803 5802 5802 5801 5801
5734 5735 5737 5738 5740 5743 5747 5749 5753 5757 5762 5765 5767 5770 5773 5776 5779 5781 5782 5784 5786 5787 5788 5790 5790 5791 5792 5793 5794 5794 5794 5794 5794 5794 5794 5795 5795 5795 5795 5795 5795 5794 5793 5792
5728 5729 5730 5732 5734 5738 5739 5742 5746 5749 5753 5756 5760 5763 5766 5768 5771 5773 5776 5778 5779 5781 5782 5783 5784 5786 5787 5787 5788 5788 5788 5788 5788 5788 5788 5788 5788 5788 5787 5787 5786 5785 5784 5782
5723 5724 5724 5727 5730 5731 5732 5735 5738 5742 5746 5749 5752 5756 5758 5761 5764 5766 5769 5771 5773 5774 5776 5777 5778 5780 5781 5782 5782 5782 5782 5782 5782 5782 5781 5781 5780 5780 5779 5778 5777 5776 5774 5772
5718 5718 5719 5721 5723 5725 5727 5729 5732 5736 5740 5743 5746 5749 5752 5754 5757 5760 5762 5764 5766 5768 5769 5771 5772 5773 5774 5775 5775 5775 5775 5775 5775 5774 5773 5773 5772 5771 5770 5769 5767 5766 5764 5762
5713 5714 5715 5716 5718 5720 5722 5724 5727 5730 5733 5736 5739 5742 5745 5748 5751 5753 5755 5757 5758 5760 5762 5764 5765 5766 5767 5767 5768 5768 5768 5768 5767 5766 5766 5765 5764 5763 5761 5760 5758 5756 5754 5751
5710 5711 5712 5713 5714 5716 5718 5720 5723 5725 5728 5730 5733 5736 5738 5741 5743 5746 5748 5750 5752 5753 5755 5756 5757 5758 5759 5760 5760 5760 5760 5760 5759 5758 5757 5756 5755 5753 5751 5749 5747 5745 5743 5740
Wind_Speed
20 19 18 19 19 19 17 16 15 14 15 14 13 12 12 13 14 16 18 17 17 16 16 15 13 12 9 9 12 16 19 20 21 20 21 20 18 18 16 15 13 11 11 10
19 18 19 20 20 19 18 17 16 16 16 16 14 12 13 14 15 17 16 16 16 16 15 14 12 11 9 9 12 15 18 19 21 20 21 20 18 19 18 16 15 13 12 11
18 18 21 21 20 19 19 18 18 18 17 17 16 12 13 14 15 16 15 16 16 16 14 13 12 10 8 8 11 15 16 18 20 21 22 21 19 20 18 16 16 14 13 13
19 20 21 21 20 19 19 19 19 19 18 17 16 13 12 15 17 16 15 15 14 14 13 12 11 9 7 7 9 12 16 17 19 21 21 20 20 20 20 18 16 16 15 14
19 20 22 21 20 20 19 20 20 20 19 18 16 15 12 14 15 14 14 14 14 13 12 11 10 7 6 6 8 10 15 18 21 21 21 21 20 20 20 19 18 17 16 14
20 22 21 21 21 21 20 22 22 22 20 18 16 15 12 14 14 12 13 13 13 12 11 10 9 8 6 5 6 9 14 17 18 20 21 21 20 19 20 19 19 18 16 15
19 20 20 20 21 21 21 22 22 22 20 17 15 14 13 14 14 12 12 12 12 12 10 9 8 7 5 5 6 9 13 15 17 18 19 19 19 19 19 19 19 19 17 16
18 18 18 19 20 21 22 22 23 22 20 17 15 14 13 13 13 12 12 12 12 11 10 8 7 6 4 4 6 8 12 15 17 18 19 20 19 19 18 19 19 18 17 16
17 17 18 18 20 22 22 22 22 23 21 19 16 12 11 12 12 11 11 11 11 10 10 8 6 5 3 3 6 8 10 13 15 16 17 18 17 18 18 18 18 17 17 17
19 18 19 20 22 22 23 23 22 22 21 19 15 12 11 11 11 10 10 11 10 9 9 8 6 5 4 4 5 8 10 12 14 15 16 17 18 19 19 19 19 18 18 18
21 20 20 21 22 22 24 24 24 23 23 21 16 11 11 11 11 10 10 10 9 9 8 8 6 4 4 4 5 8 11 13 13 14 14 17 18 19 20 20 19 19 19 19
23 22 22 23 23 23 25 24 24 24 23 21 18 12 12 11 11 10 10 9 10 10 9 9 8 6 5 6 6 7 11 13 13 13 13 15 18 19 20 20 20 20 20 20
27 26 24 24 25 26 26 26 26 25 24 22 19 14 12 12 11 10 10 10 11 11 11 10 9 8 7 7 7 7 9 12 14 14 14 15 17 19 19 20 21 21 21 21
31 30 29 27 26 27 27 27 27 26 25 23 20 16 14 14 13 12 11 11 11 11 11 11 11 10 9 8 8 9 9 11 13 14 15 15 16 17 18 19 21 22 22 22
34 34 33 31 29 29 30 29 29 28 27 25 21 19 16 16 16 15 13 12 12 12 12 12 11 11 10 9 9 10 10 12 12 13 14 15 16 16 17 18 20 22 23 23
36 37 36 34 32 32 32 31 31 30 28 26 24 21 18 18 18 16 15 14 13 13 12 12 12 12 11 11 11 11 11 12 13 14 15 16 17 18 19 20 21 22 23 24
37 38 38 37 35 35 33 30 31 31 30 27 25 22 21 20 19 18 16 15 15 15 14 14 14 13 13 13 13 14 13 14 15 15 16 17 18 18 20 21 22 23 25 26
36 36 36 36 35 36 31 30 30 31 30 29 26 24 22 20 20 19 18 17 17 16 16 15 15 15 15 14 14 15 17 17 18 18 18 18 19 20 21 22 23 25 27 28
33 34 35 34 34 33 31 29 29 29 29 28 27 25 23 21 21 20 19 18 18 18 18 18 18 17 17 17 16 16 17 19 20 21 21 21 21 22 23 25 26 27 29 30
28 29 31 31 32 31 29 28 28 28 28 27 26 26 24 22 22 21 20 20 20 20 20 19 19 19 19 19 19 19 19 20 21 22 22 23 24 25 26 27 29 30 30 32
25 26 27 28 29 28 28 27 27 29 26 26 26 25 24 23 22 23 22 22 22 21 21 21 21 20 20 20 21 21 21 21 22 23 24 24 26 27 28 29 30 30 31 32
23 24 25 26 27 26 25 26 27 26 26 26 26 25 24 23 23 23 23 23 23 22 22 22 22 22 22 22 22 22 22 23 24 24 26 26 27 28 29 30 31 32 32 34
21 22 22 23 24 23 23 23 25 25 24 24 25 25 25 24 24 24 25 25 24 24 23 22 23 22 22 23 23 23 24 24 25 26 28 29 30 30 31 32 33 34 35 36
17 18 19 19 19 18 19 21 22 22 23 24 24 24 25 25 25 25 25 25 25 25 24 23 23 23 24 24 24 25 26 26 27 28 28 29 30 31 32 32 33 34 35 36
15 14 15 17 18 17 17 19 19 20 20 21 22 23 25 25 25 26 26 26 25 25 24 24 24 24 23 24 25 26 27 28 29 29 29 29 30 31 32 32 33 35 36 37
12 12 12 12 14 16 17 17 17 18 18 19 21 23 23 24 24 24 25 25 25 25 24 24 24 24 24 25 26 27 27 28 29 30 30 31 32 32 33 34 35 36 37 38
Wind_Direction
262 259 257 253 251 252 254 255 254 258 269 274 283 296 305 309 309 311 311 314 319 324 323 320 312 303 281 246 223 216 211 209 205 205 207 208 209 207 206 209 212 216 217 217
257 255 248 247 249 248 251 251 253 256 267 274 282 297 305 305 305 309 309 312 318 320 319 318 315 309 287 245 221 212 208 207 205 207 206 204 205 204 203 209 210 212 210 208
253 247 244 245 245 247 248 249 252 259 267 275 284 293 304 306 306 309 311 314 318 319 318 318 314 307 290 250 227 209 208 205 203 205 202 203 205 204 205 207 209 208 207 205
248 245 243 243 243 245 243 249 254 263 272 279 287 295 305 306 305 304 307 313 316 319 319 320 312 305 289 251 222 207 202 200 196 196 200 202 202 204 205 203 207 205 204 205
245 243 241 240 239 241 242 248 255 264 272 281 289 298 309 308 307 303 304 308 312 315 316 319 312 296 285 257 221 209 201 196 194 196 200 200 200 203 204 206 206 205 204 208
240 240 240 237 236 241 245 249 256 263 272 280 291 299 311 312 308 300 299 303 307 312 315 315 312 293 277 252 213 203 197 192 193 195 194 198 204 207 205 205 204 205 207 209
237 237 238 236 235 240 246 250 256 262 269 279 290 296 309 314 308 296 296 299 302 310 312 313 307 298 278 237 209 196 194 194 194 194 193 198 205 207 207 205 205 206 207 207
232 233 235 235 235 239 243 250 257 265 271 278 283 293 302 311 308 297 297 297 297 301 303 309 308 297 283 229 202 195 192 196 196 195 197 199 203 205 206 205 204 205 207 210
229 228 232 232 232 235 241 247 257 264 271 275 280 290 295 300 303 302 301 294 293 293 294 299 305 294 268 236 209 201 195 195 194 194 196 198 201 204 204 203 205 208 211 216
232 229 230 231 233 235 240 246 251 259 268 275 277 285 290 295 298 298 300 293 290 285 283 287 291 286 256 236 214 205 199 194 196 196 198 200 201 203 204 206 210 215 219 222
240 236 231 233 234 237 241 245 249 256 265 272 275 278 284 290 291 290 291 291 287 278 273 270 269 271 249 235 223 210 201 196 197 199 202 204 206 208 210 213 217 221 226 230
247 246 240 238 238 239 243 246 250 255 263 269 272 276 278 282 285 280 286 287 284 278 272 266 260 262 252 240 232 217 203 199 200 204 207 209 211 213 216 218 222 227 231 235
253 254 252 245 244 244 246 246 249 254 259 262 265 274 277 278 279 277 281 284 279 276 269 261 256 252 248 244 237 223 211 208 208 211 214 216 219 220 223 227 230 234 238 241
258 259 258 255 250 248 247 247 249 253 256 259 263 269 271 271 271 271 276 278 276 271 267 260 253 245 241 239 236 233 226 218 217 218 220 222 226 231 231 236 237 238 242 246
259 260 260 260 257 253 251 249 249 252 255 258 261 264 267 267 268 268 272 271 271 268 266 262 254 243 242 242 239 237 232 226 226 227 227 228 231 236 239 243 242 244 248 250
259 261 261 261 261 260 256 251 250 252 253 257 259 258 261 263 264 265 267 267 264 263 263 261 256 250 248 248 245 242 240 234 233 235 236 236 240 243 244 246 249 252 254 255
258 260 261 261 260 260 257 254 251 251 254 255 257 257 258 260 258 257 260 260 259 256 255 254 252 253 252 251 247 243 242 241 242 243 244 244 247 249 250 252 255 258 260 261
259 258 259 259 258 258 258 253 250 249 250 253 255 257 257 256 253 253 256 254 255 253 250 250 251 253 253 253 252 249 248 248 248 248 249 251 253 256 256 256 258 259 261 264
258 256 255 257 257 257 255 254 250 249 248 250 251 252 255 255 251 250 255 254 253 250 248 248 251 254 255 255 255 256 256 255 256 256 255 257 258 260 261 262 263 265 266 269
255 254 254 255 255 255 254 253 250 247 245 245 247 249 253 253 253 250 252 253 251 251 251 250 252 254 256 257 259 261 262 262 261 259 259 260 262 264 265 266 269 271 271 272
252 254 255 255 254 253 252 249 247 243 243 243 245 246 250 251 252 249 249 252 253 254 253 251 251 252 255 259 262 264 265 265 264 263 262 262 264 267 269 271 273 275 275 277
252 254 254 253 252 251 250 246 244 243 243 242 242 243 246 246 247 246 247 250 250 251 253 253 253 252 256 259 263 266 267 266 266 267 268 268 268 269 272 274 277 276 276 279
252 252 250 250 250 249 246 244 242 241 240 240 239 241 243 242 242 243 246 249 246 247 251 253 254 254 258 260 264 267 268 269 268 269 272 274 274 274 276 278 278 279 279 278
252 250 248 246 245 242 242 241 238 237 238 236 236 239 241 241 241 243 246 244 244 248 251 253 254 255 259 262 265 266 268 271 272 274 276 276 277 278 279 280 280 280 280 280
251 248 246 243 236 237 239 237 236 235 235 235 237 237 239 239 242 243 243 243 244 248 250 253 255 258 263 266 269 271 272 273 275 277 279 278 278 278 280 281 282 282 282 283
246 244 243 239 233 231 232 234 235 234 235 235 235 238 240 239 236 238 241 242 245 248 251 253 256 261 264 267 269 271 273 275 277 279 281 282 283 285 285 285 285 285 285 285